Blacksburg, VA

5:41 PM EDT on September 25, 2017 (GMT -0400)
Virginia Tech

Weather History for KBCB - October, 2012

Change the Weather History Date:

Monday, October 29, 2012

  Actual Average Record
Temperature  
Mean Temperature 35 °F 49 °F  
Max Temperature 38 °F 62 °F 78 °F (2016)
Min Temperature 32 °F 35 °F 16 °F (1969)
Degree Days  
Heating Degree Days 30 16  
Month to date heating degree days 349 363  
Since 1 July heating degree days 455 494  
Cooling Degree Days 0 0  
Month to date cooling degree days 2 1  
Year to date cooling degree days 716 570  
Moisture  
Dew Point 37 °F    
Average Humidity 95    
Maximum Humidity 100    
Minimum Humidity 89    
Precipitation  
Precipitation 0.17 in 0.09 in 1.30 in (1973)
Month to date precipitation 1.66 2.59  
Year to date precipitation 32.98 34.88  
Snow  
Snow 0.20 in - - ()
Month to date snowfall 0.2  
Since 1 July snowfall 0.2  
Since 1 September snowfall 0.2  
Snow Depth 0.00 in    
Sea Level Pressure  
Sea Level Pressure 29.59 in    
Wind  
Wind Speed 12 mph (WNW)    
Max Wind Speed 20 mph    
Max Gust Speed 45 mph    
Visibility 7 miles    
Events Rain , Snow    
T = Trace of Precipitation, MM = Missing Value Source: NWS Daily Summary

Daily Weather History Graph

Daily Weather History Graph

Search for Another Location

Airport or City:

Trip Planner

Search our weather history database for the weather conditions in past years. The results will help you decide how hot, cold, wet, or windy it might be!

Date:

Astronomy

Oct. 29, 2012 Rise Set
Actual Time 7:43 AM EDT 6:26 PM EDT
Civil Twilight 7:16 AM EDT 6:53 PM EDT
Nautical Twilight 6:45 AM EDT 7:24 PM EDT
Astronomical Twilight 6:15 AM EDT 7:54 PM EDT
Moon 6:18 PM EDT (10/29) 7:31 AM EDT (10/29)
Length of Visible Light 11h 36m
Length of Day
10h 43m
Full, 100% of the Moon is Illuminated
Oct 29
Full
Oct 29
Full
Nov 6
Last Quarter
Nov 13
New
Nov 20
First Quarter

Hourly Weather History & Observations

Time (EDT) Temp. Windchill Dew Point Humidity Pressure Visibility Wind Dir Wind Speed Gust Speed Precip Events Conditions
12:15 AM 42.8 °F 37.5 °F 39.2 °F 87% 29.76 in 10.0 mi WNW 9.2 mph 16.1 mph N/A   Overcast
12:55 AM 42.8 °F 37.5 °F 39.2 °F 87% 29.75 in 10.0 mi WNW 9.2 mph 17.3 mph N/A Rain Light Rain
1:15 AM 41.0 °F 35.2 °F 39.2 °F 93% 29.74 in 10.0 mi WNW 9.2 mph 17.3 mph N/A   Light Drizzle
1:35 AM 41.0 °F 34.7 °F 39.2 °F 93% 29.73 in 10.0 mi WNW 10.4 mph 16.1 mph N/A   Light Drizzle
1:55 AM 41.0 °F 34.7 °F 39.2 °F 93% 29.72 in 10.0 mi WNW 10.4 mph 17.3 mph N/A   Overcast
2:15 AM 39.2 °F 33.0 °F 39.2 °F 100% 29.72 in 10.0 mi WNW 9.2 mph 18.4 mph N/A   Drizzle
2:35 AM 39.2 °F 33.0 °F 39.2 °F 100% 29.72 in 7.0 mi WNW 9.2 mph - N/A   Drizzle
2:55 AM 39.2 °F 32.5 °F 39.2 °F 100% 29.72 in 7.0 mi WNW 10.4 mph - N/A   Drizzle
3:15 AM 39.2 °F 33.6 °F 39.2 °F 100% 29.71 in 7.0 mi WNW 8.1 mph - 0.01 in Rain Light Rain
3:35 AM 37.4 °F 31.4 °F 37.4 °F 100% 29.70 in 7.0 mi WNW 8.1 mph - 0.03 in Rain Rain
3:55 AM 37.4 °F 30.8 °F 37.4 °F 100% 29.69 in 10.0 mi WNW 9.2 mph - 0.04 in Rain Light Rain
4:15 AM 37.4 °F 32.1 °F 37.4 °F 100% 29.70 in 10.0 mi West 6.9 mph - 0.01 in Rain Light Rain
4:35 AM 37.4 °F 32.8 °F 37.4 °F 100% 29.70 in 10.0 mi WNW 5.8 mph - 0.01 in   Light Drizzle
4:55 AM 37.4 °F 33.8 °F 37.4 °F 100% 29.70 in 10.0 mi West 4.6 mph - 0.01 in Rain Light Rain
5:15 AM 37.4 °F 31.4 °F 37.4 °F 100% 29.71 in 10.0 mi West 8.1 mph - N/A Rain Light Rain
5:35 AM 37.4 °F 32.8 °F 37.4 °F 100% 29.70 in 10.0 mi WNW 5.8 mph - N/A Rain Light Rain
5:55 AM 37.4 °F 32.1 °F 37.4 °F 100% 29.70 in 10.0 mi WNW 6.9 mph - N/A Rain Light Rain
6:15 AM 37.4 °F 33.8 °F 37.4 °F 100% 29.69 in 10.0 mi WNW 4.6 mph - N/A Rain Light Rain
6:55 AM 37.4 °F 31.4 °F 37.4 °F 100% 29.70 in 10.0 mi West 8.1 mph - N/A   Overcast
7:15 AM 37.4 °F 30.8 °F 35.6 °F 93% 29.69 in 10.0 mi WNW 9.2 mph - N/A   Light Drizzle
7:35 AM 37.4 °F 30.8 °F 35.6 °F 93% 29.69 in 10.0 mi WNW 9.2 mph 16.1 mph N/A   Overcast
7:55 AM 37.4 °F 30.8 °F 35.6 °F 93% 29.69 in 10.0 mi WNW 9.2 mph - N/A Snow Light Snow
8:15 AM 37.4 °F 30.8 °F 35.6 °F 93% 29.69 in 10.0 mi WNW 9.2 mph 16.1 mph N/A Snow Light Snow
8:35 AM 37.4 °F 31.4 °F 35.6 °F 93% 29.68 in 7.0 mi WNW 8.1 mph - N/A Snow Light Snow
8:55 AM 37.4 °F 30.8 °F 35.6 °F 93% 29.68 in 10.0 mi WNW 9.2 mph - N/A Snow Light Snow
9:15 AM 37.4 °F 31.4 °F 37.4 °F 100% 29.68 in 10.0 mi WNW 8.1 mph 17.3 mph 0.01 in   Overcast
9:35 AM 37.4 °F 30.8 °F 37.4 °F 100% 29.68 in 10.0 mi WNW 9.2 mph 16.1 mph 0.01 in   Overcast
9:55 AM 37.4 °F 31.4 °F 37.4 °F 100% 29.66 in 10.0 mi West 8.1 mph - 0.01 in   Overcast
10:35 AM 37.4 °F 30.8 °F 37.4 °F 100% 29.66 in 10.0 mi WNW 9.2 mph 17.3 mph N/A Rain Light Rain
10:55 AM 37.4 °F 30.3 °F 37.4 °F 100% 29.65 in 10.0 mi WNW 10.4 mph 17.3 mph N/A Rain Light Rain
11:15 AM 37.4 °F 30.3 °F 37.4 °F 100% 29.65 in 10.0 mi WNW 10.4 mph 17.3 mph N/A Rain Light Rain
11:35 AM 39.2 °F 32.0 °F 37.4 °F 93% 29.64 in 10.0 mi WNW 11.5 mph 19.6 mph N/A   Overcast
11:55 AM 39.2 °F 31.2 °F 37.4 °F 93% 29.64 in 10.0 mi WNW 13.8 mph 18.4 mph N/A Rain Light Rain
12:15 PM 37.4 °F 30.8 °F 37.4 °F 100% 29.63 in 10.0 mi WNW 9.2 mph 18.4 mph N/A Rain Light Rain
12:35 PM 37.4 °F 29.3 °F 37.4 °F 100% 29.62 in 10.0 mi WNW 12.7 mph 19.6 mph N/A Rain Light Rain
12:55 PM 37.4 °F 28.5 °F 37.4 °F 100% 29.60 in 10.0 mi WNW 15.0 mph 23.0 mph N/A Rain Light Rain
1:15 PM 37.4 °F 29.3 °F 37.4 °F 100% 29.59 in 10.0 mi WNW 12.7 mph 23.0 mph N/A Rain Light Rain
1:55 PM 37.4 °F 29.8 °F 37.4 °F 100% 29.58 in 7.0 mi West 11.5 mph 19.6 mph N/A Rain Light Rain
2:15 PM 37.4 °F 29.8 °F 37.4 °F 100% 29.56 in 7.0 mi WNW 11.5 mph 24.2 mph N/A Rain Light Rain
2:35 PM 37.4 °F 28.5 °F 37.4 °F 100% 29.55 in 7.0 mi WNW 15.0 mph 23.0 mph N/A Rain Light Rain
2:55 PM 37.4 °F 28.5 °F 37.4 °F 100% 29.54 in 5.0 mi WNW 15.0 mph 25.3 mph N/A Rain Light Rain
3:15 PM 37.4 °F 27.8 °F 37.4 °F 100% 29.53 in 5.0 mi WNW 17.3 mph 26.5 mph N/A Rain Light Rain
3:35 PM 37.4 °F 29.8 °F 37.4 °F 100% 29.52 in 5.0 mi WNW 11.5 mph 26.5 mph N/A Rain Light Rain
3:55 PM 37.4 °F 28.9 °F 37.4 °F 100% 29.50 in 4.0 mi WNW 13.8 mph 21.9 mph N/A Snow Light Snow
4:15 PM 37.4 °F 28.9 °F 37.4 °F 100% 29.49 in 2.5 mi West 13.8 mph 21.9 mph N/A Snow Light Snow
4:35 PM 35.6 °F 26.2 °F 35.6 °F 100% 29.48 in 3.0 mi West 15.0 mph 23.0 mph 0.01 in Snow Light Snow
4:55 PM 35.6 °F 25.9 °F 35.6 °F 100% 29.48 in 2.5 mi West 16.1 mph 26.5 mph 0.01 in Snow Light Snow
5:15 PM 35.6 °F 27.1 °F 35.6 °F 100% 29.47 in 2.0 mi West 12.7 mph 24.2 mph 0.01 in Snow Light Snow
5:35 PM 35.6 °F 26.2 °F 35.6 °F 100% 29.46 in 2.0 mi WNW 15.0 mph 24.2 mph 0.02 in Snow Light Snow
5:55 PM 35.6 °F 27.5 °F 35.6 °F 100% 29.46 in 1.2 mi West 11.5 mph 24.2 mph 0.02 in Snow Light Snow
6:15 PM 35.6 °F 26.6 °F 35.6 °F 100% 29.44 in 1.0 mi West 13.8 mph 25.3 mph 0.01 in Snow Light Snow
6:35 PM 35.6 °F 27.1 °F 35.6 °F 100% 29.43 in 1.2 mi West 12.7 mph 28.8 mph 0.01 in Snow Light Snow
6:55 PM 35.6 °F 25.9 °F 35.6 °F 100% 29.43 in 0.8 mi West 16.1 mph 26.5 mph 0.01 in Snow Light Snow
7:15 PM 35.6 °F 24.8 °F 35.6 °F 100% 29.42 in 3.0 mi West 19.6 mph 33.4 mph 0.01 in Snow Light Snow
7:35 PM 35.6 °F 25.5 °F 35.6 °F 100% 29.41 in 3.0 mi West 17.3 mph 28.8 mph 0.02 in Snow Light Snow
7:55 PM 35.6 °F 25.5 °F 35.6 °F 100% 29.39 in 3.0 mi West 17.3 mph 28.8 mph 0.02 in Snow Light Snow
8:15 PM 35.6 °F 26.2 °F 35.6 °F 100% 29.39 in 2.5 mi West 15.0 mph 34.5 mph N/A Snow Light Snow
8:35 PM 35.6 °F 27.5 °F 35.6 °F 100% 29.38 in 2.5 mi West 11.5 mph 28.8 mph 0.01 in Snow Light Snow
8:55 PM 35.6 °F 24.8 °F 35.6 °F 100% 29.37 in 4.0 mi West 19.6 mph 31.1 mph 0.01 in Snow Light Snow
11:35 PM 35.6 °F 25.2 °F 35.6 °F 100% 29.30 in 2.0 mi WNW 18.4 mph 31.1 mph N/A Snow Light Snow
11:55 PM 35.6 °F 24.8 °F 33.8 °F 93% 29.29 in 2.5 mi West 19.6 mph 44.9 mph N/A Snow Light Snow